Погода в Прасковеевке

Россия / Краснодарский край     44°28′26″N   38°13′04″E
темп.,
°C
ветер,
м/с
пор.,
м/с
влажн.,
%
обл.,
%
осадки,
мм/ч
давл.,
гПа
погр.,
м
11 мая, вт
вт1100:00+8зюз4968100 0.0 1020416
03:00+9зюз61179100 0.4 1018706
06:00+8юз81286100 1.3 10161136
09:00+8юз91394100 4.9 10161401
12:00+9юз71294100 5.3 10151300
15:00+9юз61196100 11.5 10161057
18:00+9ююз71195100 7.0 1015962
21:00+9ю61096100 13.5 1016963
12 мая, ср
ср1200:00+9ю61192100 3.1 1016840
03:00+9ю51090100 4.0 1015615
06:00+9ююв488893 0.2 1016430
09:00+12ю4763100 0.2 1015932
12:00+15ю3549100 0.0 1015851
15:00+16юз1145100 0.0 1014666
18:00+16сз126319 0.0 1013127
21:00+11ссв22871 0.0 101335
13 мая, чт
чт1300:00+11св22890 0.0 101224
03:00+10ссв22900 0.0 101226
06:00+12ссв32765 0.0 101138
09:00+21ссв124512 0.0 1011319
12:00+25юв123280 0.0 1010963
15:00+27в2433100 0.0 10101340
18:00+22ссв12686 0.0 101059
21:00+17ссв228935 0.0 101014
14 мая, пт
пт1400:00+17всв227479 0.0 101013
03:00+16св116727 0.0 101011
06:00+17всв11621 0.0 101111
09:00+24ююв2341100 0.0 1011325
12:00+27ююв223449 0.0 1011595
15:00+27юз113876 0.0 1010586
18:00+23зсз016824 0.0 101025
21:00+16сз22840 0.0 101035
15 мая, сб
сб1500:00+17ссв3385100 0.0 101152
03:00+14сз229189 0.0 101332
06:00+14ю119259 0.6 101516
09:00+19юв346836 0.7 1016438
12:00+20юв556516 0.0 1017656
15:00+21ююв33615 0.0 1015558
18:00
21:00+14с2290100 0.0 101616